Weather in Volchy-Vtoroy

Russia / Belgorod Oblast     50°28′32″N   37°34′35″E
temp.,
°C
wind,
m/s
gust,
m/s
humid.,
%
clouds,
%
prec.,
mm/h
press.,
hPa
HPBL,
m
20 april, tue
tue2000:00+9ese4984100 0.3 1014198
03:00+9ene4784100 0.3 1012175
06:00+8ene4885100 0.1 1012307
09:00+8e51192100 0.4 1010485
12:00+11e5883100 0.8 1009604
15:00+11e71190100 3.0 1006761
18:00+9ene81496100 7.8 1003716
21:00+8ene6896100 11.4 1001405
21 april, wed
wed2100:00+9sse4996100 2.5 999565
03:00+8wnw6895100 5.3 1000478
06:00+6w51093100 0.1 1006612
09:00+7wsw4791100 0.1 1009617
12:00+9wsw6983100 0.4 1011902
15:00+10wsw6107331 0.6 10131146
18:00+11sw5966100 0.2 1014837
21:00+8ssw5982100 0.4 1016296
22 april, thu
thu2200:00+7ssw389081 0.2 1016274
03:00+6sw23965 0.5 101765
06:00+5sw22935 0.0 101936
09:00+11sw35680 0.0 1020471
12:00+14sw455248 0.0 10201564
15:00+14sw4659100 0.5 10201232
18:00+14ssw3567100 0.1 1020230
21:00+12s3772100 0.2 1021151
23 april, fri
fri2300:00+11s377398 0.0 1020137
03:00+10sse3773100 0.0 1020135
06:00+10s3878100 0.0 1020201
09:00+13s586793 0.0 1020471
12:00+16ssw7852100 0.8 10191861
15:00+17ssw574191 1.1 10172483
18:00+15sse695553 0.1 1016537
21:00+12s5116684 0.3 1016299
24 april, sat
sat2400:00+12s4116890 0.0 1015378
03:00+9ssw41083100 0.4 1014334
06:00+9ssw51088100 0.3 1012416
09:00+4wnw71094100 1.8 1013489
12:00+8wnw796990 2.1 10151362
15:00+11w8104299 2.4 10142762
18:00+9w710595 0.2 10161480
21:00+6wsw39695 0.2 1016212